TimeCDT,TemperatureF,Dew PointF,Humidity,Sea Level PressureIn,VisibilityMPH,Wind Direction,Wind SpeedMPH,Gust SpeedMPH,PrecipitationIn,Events,Conditions,WindDirDegrees,DateUTC
12:54 AM,77.0,57.0,50,29.83,10.0,South,10.4,-,N/A,,Clear,170,2012-06-10 05:54:00
1:54 AM,75.9,57.0,52,29.83,10.0,SSE,8.1,-,N/A,,Clear,160,2012-06-10 06:54:00
2:54 AM,73.0,57.0,57,29.83,10.0,SSE,9.2,-,N/A,,Clear,160,2012-06-10 07:54:00
3:54 AM,72.0,57.0,59,29.84,10.0,SSE,8.1,-,N/A,,Clear,160,2012-06-10 08:54:00
4:54 AM,68.0,57.9,70,29.84,10.0,SSE,5.8,-,N/A,,Clear,150,2012-06-10 09:54:00
5:54 AM,68.0,57.9,70,29.85,10.0,SSE,5.8,-,N/A,,Clear,160,2012-06-10 10:54:00
6:54 AM,71.1,59.0,66,29.86,10.0,South,8.1,-,N/A,,Clear,170,2012-06-10 11:54:00
7:54 AM,73.9,63.0,68,29.87,10.0,South,11.5,-,N/A,,Clear,170,2012-06-10 12:54:00
8:54 AM,73.9,63.0,68,29.88,10.0,South,11.5,-,N/A,,Clear,170,2012-06-10 13:54:00
9:54 AM,79.0,64.9,62,29.88,10.0,South,11.5,-,N/A,,Clear,170,2012-06-10 14:54:00
10:54 AM,81.0,64.0,56,29.87,10.0,South,12.7,18.4,N/A,,Scattered Clouds,170,2012-06-10 15:54:00
11:54 AM,82.0,64.9,56,29.86,10.0,SSE,10.4,21.9,N/A,,Scattered Clouds,160,2012-06-10 16:54:00
12:54 PM,84.9,64.9,51,29.85,10.0,SSE,18.4,24.2,N/A,,Scattered Clouds,150,2012-06-10 17:54:00
1:54 PM,82.9,64.0,53,29.84,10.0,SSE,16.1,26.5,N/A,,Scattered Clouds,160,2012-06-10 18:54:00
2:54 PM,87.1,63.0,44,29.83,10.0,SSE,15.0,24.2,N/A,,Scattered Clouds,160,2012-06-10 19:54:00
5:54 PM,86.0,64.0,48,29.80,10.0,SSE,15.0,20.7,N/A,,Clear,150,2012-06-10 22:54:00
8:54 PM,80.1,64.0,58,29.81,10.0,SSE,6.9,-,N/A,,Clear,160,2012-06-11 01:54:00
9:54 PM,78.1,64.0,62,29.82,10.0,SSE,6.9,-,N/A,,Clear,160,2012-06-11 02:54:00
10:54 PM,75.9,64.0,67,29.83,10.0,SSE,5.8,-,N/A,,Clear,160,2012-06-11 03:54:00
11:54 PM,75.0,64.9,71,29.84,10.0,South,10.4,-,N/A,,Clear,170,2012-06-11 04:54:00